SCP
0 7 7 5 4 4 5 5 4 2 2 1 1 0 0 0 0 0 0 0 0 0 0 0 0 0 0 0 0 0 0 0
3 6 4 4 3 3 2 1 1 1 0 0 0 0 0 0 0 0 0 0 0 0 0 0 0 0 0 0 0 0 0 0
6 3 2 2 2 1 0 0 1 0 0 0 0 0 0 0 0 0 0 0 0 0 0 0 0 0 0 0 0 0 0 0
1 0 0 0 0 0 0 0 0 0 0 0 -0 -0 0 0 0 0 0 0 0 0 0 0 0 0 0 0 0 0 0 0
0 0 0 0 0 0 0 0 0 0 0 -0 -0 0 0 0 0 0 0 0 0 0 0 0 0 0 0 0 0 0 0 0
0 0 0 0 0 0 0 0 0 0 0 -0 0 0 0 0 0 0 0 0 0 0 0 0 0 0 0 0 0 0 0 0
0 0 0 0 0 0 0 0 0 0 -0 -0 0 0 0 0 0 0 0 0 0 0 0 0 0 0 0 0 0 0 0 0
0 0 0 0 0 0 0 0 0 -0 -0 -0 0 0 0 0 0 0 0 0 0 0 0 0 0 0 0 0 0 0 0 0
0 0 0 0 0 0 0 0 -0 -0 -0 0 0 0 0 0 0 0 0 0 0 0 0 0 0 0 0 0 0 0 0 0
0 0 0 0 0 0 0 0 -0 -0 0 0 0 0 0 0 0 0 0 0 0 0 0 0 0 0 0 0 0 0 0 0
0 0 0 0 0 0 0 -0 -0 -0 0 0 0 0 0 0 0 0 0 0 0 0 0 0 0 0 0 0 0 0 0 0
0 0 0 0 0 0 0 0 0 0 0 0 0 0 0 0 0 0 0 0 0 0 0 0 0 0 0 0 0 0 0 0
0 0 0 0 0 0 0 0 0 0 0 -0 0 0 0 0 0 0 0 -0 -0 0 0 0 0 0 0 0 0 0 0 0
0 0 0 0 0 0 0 0 0 0 0 0 0 0 0 0 0 -0 -0 -0 -0 0 0 0 0 0 0 0 0 0 0 0
0 0 0 0 0 0 0 0 0 0 0 -0 0 0 0 -0 -0 -0 -0 0 0 0 0 0 0 0 0 0 0 -0 -0 0
0 0 0 0 0 0 0 -0 -0 -0 0 0 -0 -0 -0 -0 -0 0 0 0 0 0 0 0 0 -0 0 0 0 0 0 0
0 0 0 0 0 -0 0 0 0 0 0 0 -0 -0 -0 -0 0 0 0 0 0 0 0 0 0 -0 -0 0 0 0 0 0
0 0 0 0 -0 -0 -0 0 -0 -0 -0 -0 -0 -0 -0 0 0 0 0 0 0 0 0 0 0 0 0 0 0 0 0 0
0 0 0 -0 -0 -0 -0 -0 -0 0 -0 -0 -0 -0 -0 0 0 0 0 0 0 0 0 0 0 0 0 0 0 0 0 0
0 0 0 0 0 0 -0 -0 -0 -0 -0 -0 -0 -0 0 0 0 0 0 0 0 0 0 0 0 0 0 0 0 0 0 0
Wind_Speed_500mb
78 81 68 75 87 87 85 93 97 90 85 76 68 59 50 47 42 40 36 27 20 16 13 10 11 14 16 16 16 18 19 19
83 83 78 88 84 96 98 93 91 80 75 73 68 57 51 48 43 39 32 24 19 17 15 16 15 14 16 19 20 19 18 17
78 85 82 88 85 91 93 90 84 78 77 70 59 54 51 46 41 37 31 26 23 22 19 17 18 19 19 17 20 19 18 19
77 90 90 87 86 87 93 89 82 70 71 61 56 56 52 48 41 36 33 30 27 26 25 22 21 20 19 18 17 17 17 18
83 90 85 82 84 91 94 92 85 73 64 62 62 59 52 43 39 36 32 30 28 27 24 21 20 18 17 18 17 15 15 18
82 86 86 87 91 95 99 92 76 72 68 63 59 52 48 43 39 35 32 30 29 29 25 20 17 16 17 19 21 17 14 18
90 93 97 99 100 94 89 78 74 71 64 58 53 48 46 42 39 37 33 31 31 27 23 20 15 12 10 12 14 13 17 17
98 100 103 107 88 86 86 79 73 68 61 57 51 47 45 43 40 37 35 32 30 24 22 16 10 9 9 12 15 16 16 19
101 102 98 95 93 85 86 77 71 65 61 57 52 48 46 43 42 37 34 31 28 23 18 15 13 16 16 17 18 19 20 21
103 102 86 76 77 86 85 79 66 63 60 57 53 49 44 41 40 36 32 27 25 23 22 21 22 23 19 20 22 23 24 21
91 91 89 78 71 69 80 68 65 63 60 57 53 49 44 39 36 34 29 24 20 18 17 17 18 20 20 18 22 24 27 31
86 86 80 75 67 66 68 65 64 63 62 58 52 50 46 40 36 32 31 29 20 20 18 14 14 21 24 27 29 30 27 25
79 77 75 73 68 67 63 62 62 63 61 59 54 49 46 42 39 35 35 35 25 23 18 13 16 22 28 35 33 35 36 39
79 71 75 70 68 65 61 60 60 66 63 49 46 45 45 46 46 46 36 28 22 24 21 23 26 28 30 27 31 39 39 40
75 73 72 70 68 63 57 55 52 52 60 51 47 43 41 39 38 39 41 39 35 36 35 34 34 32 29 30 38 43 45 37
71 71 70 67 67 61 52 51 52 51 50 48 41 38 36 32 29 27 25 22 21 32 40 35 37 35 34 30 40 32 35 37
73 75 72 64 62 58 51 51 51 49 45 42 40 38 35 33 31 28 26 25 25 22 22 34 40 45 47 43 40 36 34 35
74 72 67 64 60 56 51 50 48 45 45 47 43 40 36 33 30 29 28 27 25 23 21 21 26 26 29 32 35 34 33 34
69 63 61 59 57 51 48 46 47 47 44 42 41 37 34 32 30 29 28 26 25 28 30 33 37 25 27 29 30 32 33 33
63 61 56 53 51 49 47 45 44 45 42 40 38 36 35 33 31 29 27 26 24 23 22 28 33 25 26 26 28 29 29 31
Wind_Direction_500mb
160 137 142 153 146 159 149 151 149 153 155 157 157 151 141 140 143 146 145 146 128 107 98 77 64 59 57 52 43 34 31 29
145 133 140 149 147 149 149 151 155 153 158 156 153 146 143 144 141 142 139 132 127 115 105 96 92 93 79 53 44 40 36 21
127 128 140 148 145 148 153 148 145 152 152 151 149 145 143 143 146 137 132 124 117 109 103 97 97 90 75 60 64 31 27 22
125 140 145 142 143 147 150 148 141 141 148 143 140 143 146 141 136 131 124 119 113 106 101 98 101 85 71 64 60 44 26 22
127 139 144 139 145 148 147 146 145 144 134 132 131 133 132 127 123 120 122 117 114 105 103 109 102 90 69 51 40 43 24 18
133 141 141 139 140 139 139 133 128 124 122 124 125 124 122 123 121 119 113 113 110 103 99 100 92 70 48 34 33 33 10 7
137 142 142 138 133 128 126 125 123 122 122 122 123 124 121 119 116 113 111 109 106 106 104 92 78 55 33 19 19 22 357 7
135 135 133 130 126 126 123 122 121 120 123 121 121 120 118 116 114 114 113 110 107 107 104 96 76 52 28 8 352 359 345 7
131 130 126 123 123 123 118 119 118 121 121 120 118 118 116 116 115 114 115 114 111 103 95 75 54 37 27 17 8 3 2 5
126 120 118 120 123 120 117 116 121 120 119 118 116 114 113 113 113 112 109 105 100 92 82 67 45 29 20 15 7 4 2 13
118 117 115 115 116 118 117 118 119 119 117 115 113 112 111 109 107 102 99 99 97 91 78 61 43 26 14 9 11 11 17 16
117 115 113 113 114 115 114 119 120 119 117 114 113 110 107 105 106 112 122 109 96 90 76 62 45 30 37 35 30 26 26 18
115 116 116 116 116 116 118 120 122 120 119 117 117 127 132 131 125 118 128 119 110 97 78 93 72 52 47 39 32 33 35 37
115 116 115 117 117 117 119 122 122 121 114 114 114 112 109 108 109 108 105 98 95 92 85 81 70 61 51 42 40 41 43 43
116 116 116 117 117 117 119 119 118 119 117 116 115 111 110 109 103 99 97 90 88 83 77 72 63 58 51 45 47 37 36 39
117 117 115 116 115 114 119 119 118 116 117 115 115 115 113 108 102 96 92 89 80 65 57 56 56 52 50 52 59 46 37 35
115 115 115 117 116 116 119 120 117 115 114 118 117 116 117 114 111 110 106 99 89 75 49 36 38 38 37 34 46 45 38 34
115 115 117 115 114 117 120 119 119 118 121 121 114 111 109 110 109 107 99 89 83 75 71 61 63 45 43 40 38 39 36 33
113 114 117 118 116 119 117 116 115 114 113 112 115 113 113 112 108 102 97 92 84 76 68 78 73 56 49 44 40 37 34 31
115 113 112 115 118 119 118 117 117 114 113 115 117 114 110 107 104 100 97 93 87 78 66 55 64 59 53 48 44 37 35 31
Wind_Speed_850mb
78 81 68 75 87 87 85 93 97 90 85 76 68 59 50 47 42 40 36 27 20 16 13 10 11 14 16 16 16 18 19 19
83 83 78 88 84 96 98 93 91 80 75 73 68 57 51 48 43 39 32 24 19 17 15 16 15 14 16 19 20 19 18 17
78 85 82 88 85 91 93 90 84 78 77 70 59 54 51 46 41 37 31 26 23 22 19 17 18 19 19 17 20 19 18 19
77 90 90 87 86 87 93 89 82 70 71 61 56 56 52 48 41 36 33 30 27 26 25 22 21 20 19 18 17 17 17 18
83 90 85 82 84 91 94 92 85 73 64 62 62 59 52 43 39 36 32 30 28 27 24 21 20 18 17 18 17 15 15 18
82 86 86 87 91 95 99 92 76 72 68 63 59 52 48 43 39 35 32 30 29 29 25 20 17 16 17 19 21 17 14 18
90 93 97 99 100 94 89 78 74 71 64 58 53 48 46 42 39 37 33 31 31 27 23 20 15 12 10 12 14 13 17 17
98 100 103 107 88 86 86 79 73 68 61 57 51 47 45 43 40 37 35 32 30 24 22 16 10 9 9 12 15 16 16 19
101 102 98 95 93 85 86 77 71 65 61 57 52 48 46 43 42 37 34 31 28 23 18 15 13 16 16 17 18 19 20 21
103 102 86 76 77 86 85 79 66 63 60 57 53 49 44 41 40 36 32 27 25 23 22 21 22 23 19 20 22 23 24 21
91 91 89 78 71 69 80 68 65 63 60 57 53 49 44 39 36 34 29 24 20 18 17 17 18 20 20 18 22 24 27 31
86 86 80 75 67 66 68 65 64 63 62 58 52 50 46 40 36 32 31 29 20 20 18 14 14 21 24 27 29 30 27 25
79 77 75 73 68 67 63 62 62 63 61 59 54 49 46 42 39 35 35 35 25 23 18 13 16 22 28 35 33 35 36 39
79 71 75 70 68 65 61 60 60 66 63 49 46 45 45 46 46 46 36 28 22 24 21 23 26 28 30 27 31 39 39 40
75 73 72 70 68 63 57 55 52 52 60 51 47 43 41 39 38 39 41 39 35 36 35 34 34 32 29 30 38 43 45 37
71 71 70 67 67 61 52 51 52 51 50 48 41 38 36 32 29 27 25 22 21 32 40 35 37 35 34 30 40 32 35 37
73 75 72 64 62 58 51 51 51 49 45 42 40 38 35 33 31 28 26 25 25 22 22 34 40 45 47 43 40 36 34 35
74 72 67 64 60 56 51 50 48 45 45 47 43 40 36 33 30 29 28 27 25 23 21 21 26 26 29 32 35 34 33 34
69 63 61 59 57 51 48 46 47 47 44 42 41 37 34 32 30 29 28 26 25 28 30 33 37 25 27 29 30 32 33 33
63 61 56 53 51 49 47 45 44 45 42 40 38 36 35 33 31 29 27 26 24 23 22 28 33 25 26 26 28 29 29 31
Wind_Direction_850mb
160 137 142 153 146 159 149 151 149 153 155 157 157 151 141 140 143 146 145 146 128 107 98 77 64 59 57 52 43 34 31 29
145 133 140 149 147 149 149 151 155 153 158 156 153 146 143 144 141 142 139 132 127 115 105 96 92 93 79 53 44 40 36 21
127 128 140 148 145 148 153 148 145 152 152 151 149 145 143 143 146 137 132 124 117 109 103 97 97 90 75 60 64 31 27 22
125 140 145 142 143 147 150 148 141 141 148 143 140 143 146 141 136 131 124 119 113 106 101 98 101 85 71 64 60 44 26 22
127 139 144 139 145 148 147 146 145 144 134 132 131 133 132 127 123 120 122 117 114 105 103 109 102 90 69 51 40 43 24 18
133 141 141 139 140 139 139 133 128 124 122 124 125 124 122 123 121 119 113 113 110 103 99 100 92 70 48 34 33 33 10 7
137 142 142 138 133 128 126 125 123 122 122 122 123 124 121 119 116 113 111 109 106 106 104 92 78 55 33 19 19 22 357 7
135 135 133 130 126 126 123 122 121 120 123 121 121 120 118 116 114 114 113 110 107 107 104 96 76 52 28 8 352 359 345 7
131 130 126 123 123 123 118 119 118 121 121 120 118 118 116 116 115 114 115 114 111 103 95 75 54 37 27 17 8 3 2 5
126 120 118 120 123 120 117 116 121 120 119 118 116 114 113 113 113 112 109 105 100 92 82 67 45 29 20 15 7 4 2 13
118 117 115 115 116 118 117 118 119 119 117 115 113 112 111 109 107 102 99 99 97 91 78 61 43 26 14 9 11 11 17 16
117 115 113 113 114 115 114 119 120 119 117 114 113 110 107 105 106 112 122 109 96 90 76 62 45 30 37 35 30 26 26 18
115 116 116 116 116 116 118 120 122 120 119 117 117 127 132 131 125 118 128 119 110 97 78 93 72 52 47 39 32 33 35 37
115 116 115 117 117 117 119 122 122 121 114 114 114 112 109 108 109 108 105 98 95 92 85 81 70 61 51 42 40 41 43 43
116 116 116 117 117 117 119 119 118 119 117 116 115 111 110 109 103 99 97 90 88 83 77 72 63 58 51 45 47 37 36 39
117 117 115 116 115 114 119 119 118 116 117 115 115 115 113 108 102 96 92 89 80 65 57 56 56 52 50 52 59 46 37 35
115 115 115 117 116 116 119 120 117 115 114 118 117 116 117 114 111 110 106 99 89 75 49 36 38 38 37 34 46 45 38 34
115 115 117 115 114 117 120 119 119 118 121 121 114 111 109 110 109 107 99 89 83 75 71 61 63 45 43 40 38 39 36 33
113 114 117 118 116 119 117 116 115 114 113 112 115 113 113 112 108 102 97 92 84 76 68 78 73 56 49 44 40 37 34 31
115 113 112 115 118 119 118 117 117 114 113 115 117 114 110 107 104 100 97 93 87 78 66 55 64 59 53 48 44 37 35 31